Regional Weather Roundup
Issued by NWS

Home | Current Version | Previous Version | Text Only | Print | Product List | Glossary On
Versions: 1 2 3 4 5 6 7 8 9 10 11 12 13 14 15 16 17 18 19 20 21 22 23 24 25 26 27 28 29 30 31 32 33 34 35 36 37 38 39 40 41 42 43 44 45 46 47 48 49 50
000
ASUS43 KLSX 181959
RWRMO

WEATHER SUMMARY FOR MISSOURI
NATIONAL WEATHER SERVICE SPRINGFIELD MO
200 PM CST THU DEC 18 2014

NOTE: "FAIR" INDICATES FEW OR NO CLOUDS BELOW 12,000 FEET WITH NO
       SIGNIFICANT WEATHER AND/OR OBSTRUCTIONS TO VISIBILITY.
       CURRENT SKY AND/OR WEATHER CONDITIONS ARE NOT AVAILABLE FOR
       CHILLICOTHE AND FARMINGTON.

MOZ001>031-035>038-043-044-053-054-182100-
...NORTHERN AND WESTERN MISSOURI...

CITY           SKY/WX    TMP DP  RH WIND       PRES   REMARKS
KANSAS CTY INT CLOUDY    32  28  85 NE6       30.19F WCI  26
KANSAS C DTWN  CLOUDY    33  28  81 E5        30.20S WCI  29
LEE`S SUMMIT   CLOUDY    33  29  85 NE3       30.19F
ST JOSEPH      LGT SNOW  31  28  89 N5        30.21F FOG     WCI  26
CHILLICOTHE      N/A     32  27  81 NE3       30.23F
KIRKSVILLE     CLOUDY    30  26  85 E3        30.22S FOG

$$
MOZ066>068-077>081-088>096-101>105-182100-
...SOUTHWEST MISSOURI...

CITY           SKY/WX    TMP DP  RH WIND       PRES   REMARKS
SPRINGFIELD    CLOUDY    37  35  92 SW3       30.14F
JOPLIN         CLOUDY    39  36  89 W6        30.16F

$$
MOZ032>034-039>042-045>050-055>058-069>072-182100-
...CENTRAL MISSOURI...

CITY           SKY/WX    TMP DP  RH WIND       PRES   REMARKS
COLUMBIA       LGT SNOW  33  30  88 E6        30.20F FOG     WCI  28
JEFFERSON CITY CLOUDY    34  31  88 E5        30.21F FOG     WCI  30
ROLLA          CLOUDY    33  31  92 E5        30.16F WCI  29
SEDALIA        CLOUDY    34  30  85 E8        30.19F WCI  27
OSAGE BEACH    CLOUDY    36  30  80 E5        30.18S

$$
MOZ051-052-059>065-182100-
...EAST CENTRAL MISSOURI...

CITY           SKY/WX    TMP DP  RH WIND       PRES   REMARKS
ST LOUIS INTL  CLOUDY    36  27  69 CALM      30.23F
SPIRIT OF STL  CLOUDY    32  29  88 E3        30.22F FOG
ST CHARLES     CLOUDY    35  25  66 N5        30.23F

$$
MOZ072>076-082>087-097>100-106>115-182100-
...SOUTH CENTRAL AND SOUTHEAST MISSOURI...

CITY           SKY/WX    TMP DP  RH WIND       PRES   REMARKS
CAPE GIRARDEAU CLOUDY    35  33  92 E6        30.23F
FARMINGTON     CLOUDY    34  32  93 N5        30.20F WCI  30
POPLAR BLUFF   CLOUDY    38  32  79 E6        30.21F
WEST PLAINS    CLOUDY    37  31  78 SE5       30.16F

$$


USA.gov is the U.S. government's official web portal to all federal, state and local government web resources and services.